This is the latest recevied weather packets stored in our database for station/object 5B4APJ-13. If no packets are shown the sender has not sent any weather packets the latest 10 day(s).
| Time | Temp. | Humidity | Pressure | Rain* | Wind** | Luminosity | Snow |
|---|---|---|---|---|---|---|---|
| 1777374730 | 22.22° C | 64% | 1012.5 hPa | 0 mm | 0.89 m/s, 126° | 294 W/m² | - |
| 1777374431 | 22.22° C | 64% | 1012.4 hPa | 0 mm | 0.89 m/s, 126° | 294 W/m² | - |
| 1777374131 | 21.67° C | 67% | 1012.3 hPa | 0 mm | 0.45 m/s, 243° | 298 W/m² | - |
| 1777373831 | 21.67° C | 68% | 1012.5 hPa | 0 mm | 2.68 m/s, 162° | 360 W/m² | - |
| 1777373530 | 21.11° C | 70% | 1012.7 hPa | 0 mm | 0.89 m/s, 192° | 343 W/m² | - |
| 1777373231 | 21.11° C | 71% | 1012.8 hPa | 0 mm | 0.89 m/s, 240° | 251 W/m² | - |
| 1777372930 | 20.56° C | 72% | 1013 hPa | 0 mm | 2.24 m/s, 149° | 225 W/m² | - |
| 1777372631 | 20.56° C | 72% | 1012.9 hPa | 0 mm | 0.89 m/s, 162° | 207 W/m² | - |
| 1777372331 | 21.11° C | 71% | 1013 hPa | 0 mm | 3.13 m/s, 212° | 193 W/m² | - |
| 1777372031 | 21.11° C | 69% | 1013 hPa | 0 mm | 3.13 m/s, 177° | 205 W/m² | - |
| 1777371731 | 21.11° C | 67% | 1013 hPa | 0 mm | 1.79 m/s, 210° | 215 W/m² | - |
| 1777371430 | 20.56° C | 66% | 1012.9 hPa | 0 mm | 2.68 m/s, 260° | 228 W/m² | - |
| 1777371130 | 21.11° C | 66% | 1012.9 hPa | 0 mm | 2.68 m/s, 227° | 229 W/m² | - |
| 1777370831 | 21.11° C | 66% | 1013 hPa | 0 mm | 0.89 m/s, 194° | 248 W/m² | - |
| 1777370530 | 21.67° C | 66% | 1013.1 hPa | 0 mm | 1.34 m/s, 233° | 280 W/m² | - |
| 1777370230 | 21.67° C | 64% | 1013.2 hPa | 0 mm | 2.68 m/s, 249° | 239 W/m² | - |
| 1777369930 | 21.67° C | 64% | 1013.1 hPa | 0 mm | 1.34 m/s, 235° | 255 W/m² | - |
| 1777369630 | 22.22° C | 62% | 1013 hPa | 0 mm | 4.47 m/s, 167° | 215 W/m² | - |
| 1777369330 | 22.22° C | 58% | 1013.2 hPa | 0 mm | 1.34 m/s, 238° | 210 W/m² | - |
| 1777369030 | 22.22° C | 58% | 1013.3 hPa | 0 mm | 1.34 m/s, 185° | 211 W/m² | - |
| 1777368730 | 23.33° C | 57% | 1012.9 hPa | 0 mm | 0.45 m/s, 139° | 215 W/m² | - |
| 1777368430 | 23.89° C | 55% | 1013.1 hPa | 0 mm | 0.89 m/s, 281° | 270 W/m² | - |
| 1777368130 | 23.89° C | 55% | 1013 hPa | 0 mm | 1.34 m/s, 238° | 501 W/m² | - |
| 1777367831 | 23.89° C | 55% | 1013.1 hPa | 0 mm | 0.89 m/s, 98° | 814 W/m² | - |
| 1777367530 | 23.89° C | 55% | 1013 hPa | 0 mm | 1.79 m/s, 73° | 892 W/m² | - |
* Rain latest hour (hover to see other rain measurements)
** Current wind speed in m/s (hover to see current wind gust speed)